Weather History for KCKC - January, 2013

Change the Weather History Date:

Sunday, January 6, 2013

  Actual Average Record
Temperature  
Mean Temperature 14 °F -  
Max Temperature 19 °F 15 °F 37 °F (2012)
Min Temperature 10 °F 1 °F -31 °F (2014)
Degree Days  
Heating Degree Days 50    
Moisture  
Dew Point 8 °F    
Average Humidity 73    
Maximum Humidity 86    
Minimum Humidity 46    
Precipitation  
Precipitation 0.00 in - - ()
Sea Level Pressure  
Sea Level Pressure 29.99 in    
Wind  
Wind Speed 9 mph (West)    
Max Wind Speed 16 mph    
Max Gust Speed 21 mph    
Visibility 9 miles    
Events Snow    
Averages and records for this station are not official NWS values.
T = Trace of Precipitation, MM = Missing Value Source: NWS Daily Summary

Daily Weather History Graph

Daily Weather History Graph

Search for Another Location

Airport or City:

Trip Planner

Search our weather history database for the weather conditions in past years. The results will help you decide how hot, cold, wet, or windy it might be!

Date:

Astronomy

Jan. 06, 2013 Rise Set
Actual Time 7:49 AM CST 4:25 PM CST
Civil Twilight 7:14 AM CST 5:01 PM CST
Nautical Twilight 6:35 AM CST 5:40 PM CST
Astronomical Twilight 5:57 AM CST 6:17 PM CST
Moon 1:54 AM CST (1/6) 12:01 PM CST (1/6)
Length of Visible Light 9h 46m
Length of Day
8h 35m
Waning Crescent, 33% of the Moon is Illuminated
Jan 6
Waning Crescent
Jan 11
New
Jan 18
First Quarter
Jan 26
Full
Feb 3
Last Quarter

Hourly Weather History & Observations

Time (CST) Temp. Windchill Dew Point Humidity Pressure Visibility Wind Dir Wind Speed Gust Speed Precip Events Conditions
12:13 AM 17.6 °F 4.3 °F 12.2 °F 79% 29.85 in 10.0 mi NNW 12.7 mph - N/A   Mostly Cloudy
12:34 AM 17.6 °F 5.0 °F 14.0 °F 86% 29.85 in 10.0 mi NNW 11.5 mph - N/A   Overcast
12:53 AM 17.6 °F 5.7 °F 14.0 °F 86% 29.85 in 10.0 mi NNW 10.4 mph - N/A   Overcast
1:13 AM 17.6 °F 4.3 °F 14.0 °F 86% 29.86 in 10.0 mi NNW 12.7 mph 18.4 mph N/A   Overcast
1:34 AM 17.6 °F 7.3 °F 14.0 °F 86% 29.87 in 10.0 mi NNW 8.1 mph - N/A   Overcast
2:13 AM 17.6 °F 5.0 °F 12.2 °F 79% 29.88 in 10.0 mi NNW 11.5 mph 17.3 mph N/A   Overcast
2:33 AM 17.6 °F 3.7 °F 12.2 °F 79% 29.89 in 10.0 mi NW 13.8 mph 18.4 mph N/A   Overcast
2:54 AM 17.6 °F 2.7 °F 12.2 °F 79% 29.90 in 10.0 mi NNW 16.1 mph 20.7 mph N/A   Overcast
3:13 AM 15.8 °F 3.4 °F 12.2 °F 86% 29.90 in 10.0 mi NNW 10.4 mph - N/A   Overcast
3:33 AM 15.8 °F 3.4 °F 12.2 °F 86% 29.90 in 10.0 mi NNW 10.4 mph - N/A   Overcast
3:54 AM 15.8 °F 4.2 °F 10.4 °F 79% 29.91 in 10.0 mi NW 9.2 mph - N/A   Overcast
4:13 AM 15.8 °F 4.2 °F 10.4 °F 79% 29.92 in 10.0 mi NW 9.2 mph - N/A   Overcast
4:33 AM 15.8 °F 3.4 °F 10.4 °F 79% 29.92 in 10.0 mi NNW 10.4 mph - N/A   Overcast
4:54 AM 15.8 °F 4.2 °F 10.4 °F 79% 29.93 in 10.0 mi NW 9.2 mph - N/A   Overcast
5:13 AM 15.8 °F 4.2 °F 8.6 °F 73% 29.94 in 10.0 mi NNW 9.2 mph - N/A Snow Light Snow
5:33 AM 14.0 °F 2.9 °F 8.6 °F 79% 29.94 in 7.0 mi NW 8.1 mph - N/A Snow Light Snow
5:53 AM 14.0 °F 2.9 °F 8.6 °F 79% 29.95 in 7.0 mi NW 8.1 mph 17.3 mph N/A Snow Light Snow
6:14 AM 12.2 °F 1.7 °F 8.6 °F 85% 29.96 in 3.0 mi NNW 6.9 mph - N/A Snow Light Snow
6:33 AM 12.2 °F 0.7 °F 6.8 °F 79% 29.96 in 7.0 mi NW 8.1 mph - N/A Snow Light Snow
6:54 AM 12.2 °F -2.5 °F 6.8 °F 79% 29.98 in 4.0 mi NW 12.7 mph 19.6 mph N/A Snow Light Snow
7:14 AM 12.2 °F -2.5 °F 6.8 °F 79% 29.98 in 4.0 mi NNW 12.7 mph 19.6 mph N/A Snow Light Snow
7:34 AM 10.4 °F -4.8 °F 6.8 °F 85% 29.99 in 4.0 mi NNW 12.7 mph - N/A Snow Light Snow
7:53 AM 10.4 °F -6.0 °F 5.0 °F 79% 29.99 in 10.0 mi NNW 15.0 mph 20.7 mph N/A Snow Light Snow
8:33 AM 10.4 °F -1.5 °F 5.0 °F 79% 30.00 in 5.0 mi NNW 8.1 mph - N/A Snow Light Snow
8:53 AM 10.4 °F -0.4 °F 5.0 °F 79% 30.02 in 4.0 mi NNW 6.9 mph - N/A Snow Light Snow
9:14 AM 10.4 °F -3.3 °F 3.2 °F 73% 30.02 in 7.0 mi NNW 10.4 mph 18.4 mph N/A Snow Light Snow
9:33 AM 12.2 °F -0.2 °F 3.2 °F 67% 30.03 in 5.0 mi NW 9.2 mph - N/A Snow Light Snow
9:54 AM 12.2 °F 0.7 °F 3.2 °F 67% 30.04 in 10.0 mi NNW 8.1 mph - N/A Snow Light Snow
10:13 AM 12.2 °F -0.2 °F 3.2 °F 67% 30.05 in 10.0 mi NNW 9.2 mph - N/A   Scattered Clouds
10:33 AM 14.0 °F 5.1 °F 3.2 °F 62% 30.06 in 10.0 mi NNW 5.8 mph - N/A   Clear
10:53 AM 14.0 °F 6.5 °F 1.4 °F 57% 30.06 in 10.0 mi North 4.6 mph - N/A   Clear
11:13 AM 14.0 °F - 3.2 °F 62% 30.05 in 10.0 mi Calm Calm - N/A   Clear
11:34 AM 15.8 °F - 3.2 °F 58% 30.04 in 10.0 mi Calm Calm - N/A   Clear
11:54 AM 15.8 °F - 3.2 °F 58% 30.04 in 10.0 mi Calm Calm - N/A   Clear
12:13 PM 15.8 °F - 1.4 °F 53% 30.04 in 10.0 mi Calm Calm - N/A   Clear
12:33 PM 17.6 °F 10.7 °F 3.2 °F 53% 30.04 in 10.0 mi SSE 4.6 mph - N/A   Clear
12:54 PM 17.6 °F - 1.4 °F 49% 30.04 in 10.0 mi Calm Calm - N/A   Clear
1:14 PM 17.6 °F - 1.4 °F 49% 30.04 in 10.0 mi Calm Calm - N/A   Clear
1:33 PM 19.4 °F 11.5 °F 1.4 °F 46% 30.04 in 10.0 mi SSW 5.8 mph - N/A   Clear
1:53 PM 19.4 °F 14.3 °F 1.4 °F 46% 30.04 in 10.0 mi SSE 3.5 mph - N/A   Clear
2:14 PM 17.6 °F 9.3 °F 3.2 °F 53% 30.05 in 10.0 mi SSE 5.8 mph - N/A   Clear
2:34 PM 17.6 °F 9.3 °F 3.2 °F 53% 30.06 in 10.0 mi SSE 5.8 mph - N/A   Clear
2:53 PM 15.8 °F 8.6 °F 5.0 °F 62% 30.06 in 10.0 mi SSE 4.6 mph - N/A   Clear
3:13 PM 15.8 °F 6.1 °F 5.0 °F 62% 30.06 in 10.0 mi South 6.9 mph - N/A   Clear
3:34 PM 15.8 °F - 6.8 °F 68% 30.07 in 10.0 mi Calm Calm - N/A   Clear
3:54 PM 15.8 °F 10.2 °F 6.8 °F 68% 30.06 in 10.0 mi SSE 3.5 mph - N/A   Clear
4:14 PM 15.8 °F 10.2 °F 6.8 °F 68% 30.06 in 10.0 mi South 3.5 mph - N/A   Clear
4:34 PM 12.2 °F 6.1 °F 6.8 °F 79% 30.06 in 10.0 mi South 3.5 mph - N/A   Clear
4:53 PM 12.2 °F 6.1 °F 6.8 °F 79% 30.05 in 10.0 mi South 3.5 mph - N/A   Scattered Clouds
5:13 PM 12.2 °F 4.3 °F 8.6 °F 85% 30.03 in 10.0 mi SSE 4.6 mph - N/A   Mostly Cloudy
5:34 PM 15.8 °F 8.6 °F 8.6 °F 73% 30.04 in 10.0 mi South 4.6 mph - N/A   Overcast
5:53 PM 15.8 °F 6.1 °F 8.6 °F 73% 30.04 in 10.0 mi South 6.9 mph - N/A   Overcast
6:13 PM 15.8 °F 7.2 °F 10.4 °F 79% 30.03 in 10.0 mi South 5.8 mph - N/A   Overcast
6:34 PM 15.8 °F 7.2 °F 10.4 °F 79% 30.02 in 10.0 mi South 5.8 mph - N/A   Overcast
6:54 PM 17.6 °F 9.3 °F 10.4 °F 73% 30.02 in 10.0 mi South 5.8 mph - N/A   Overcast
7:14 PM 17.6 °F 8.2 °F 12.2 °F 79% 30.01 in 10.0 mi South 6.9 mph - N/A   Overcast
7:33 PM 17.6 °F 7.3 °F 12.2 °F 79% 30.01 in 10.0 mi South 8.1 mph - N/A   Overcast
7:54 PM 17.6 °F 9.3 °F 12.2 °F 79% 30.02 in 10.0 mi South 5.8 mph - N/A   Overcast
8:13 PM 17.6 °F 8.2 °F 12.2 °F 79% 30.01 in 10.0 mi South 6.9 mph - N/A   Overcast
8:34 PM 17.6 °F 8.2 °F 12.2 °F 79% 30.00 in 10.0 mi South 6.9 mph - N/A   Mostly Cloudy
9:54 PM 19.4 °F 7.9 °F 14.0 °F 80% 29.98 in 10.0 mi South 10.4 mph 17.3 mph N/A   Overcast
10:13 PM 19.4 °F 10.4 °F 12.2 °F 74% 29.97 in 10.0 mi South 6.9 mph - N/A   Overcast
10:34 PM 19.4 °F 10.4 °F 12.2 °F 74% 29.96 in 10.0 mi South 6.9 mph - N/A   Scattered Clouds
10:54 PM 19.4 °F 10.4 °F 12.2 °F 74% 29.95 in 10.0 mi South 6.9 mph - N/A   Scattered Clouds
11:34 PM 19.4 °F 10.4 °F 12.2 °F 74% 29.90 in 10.0 mi South 6.9 mph - N/A   Clear
11:54 PM 19.4 °F 8.6 °F 14.0 °F 80% 29.90 in 10.0 mi South 9.2 mph 16.1 mph N/A   Scattered Clouds